Погода в Кондратовской

Россия / Архангельская область     62°22′48″N   43°57′37″E
темп.,
°C
ветер,
м/с
пор.,
м/с
влажн.,
%
обл.,
%
осадки,
мм/ч
давл.,
гПа
погр.,
м
16 мая, вс
вс1600:00+15вюв41087100 1.3 1008486
03:00+14юв3109699 3.2 1006419
06:00+15ююв3892100 0.5 1005601
09:00+16ююз4982100 0.7 10051089
12:00+17юз5980100 3.5 10051028
15:00+16юз41175100 7.6 1004851
18:00+16юз41082100 3.7 1004701
21:00+13зюз2897100 5.0 1005321
17 мая, пн
пн1700:00+12з4797100 0.8 1007484
03:00+12зсз3797100 1.0 1009543
06:00+11сз3793100 0.1 1011680
09:00+14сз4777100 0.1 1014945
12:00+18сз4554100 0.0 10161495
15:00+20сз244549 0.0 10171912
18:00+18в2458100 0.0 1018221
21:00+13юв2275100 0.0 101921
18 мая, вт
вт1800:00+12юв3985100 0.0 1020216
03:00+10юв3989100 0.0 1021241
06:00+12юв397688 0.0 1022320
09:00+17юв4757100 0.0 1021698
12:00+20юв5645100 0.0 10201132
15:00+23юв4739100 0.0 10181473
18:00+23ююв474460 0.0 10171102
21:00+18юв412663 0.0 1017273
19 мая, ср
ср1900:00+16юв3117510 0.0 1016293
03:00+14вюв39895 0.0 1016181
06:00+17юв38785 0.0 1016268
09:00+24ююв47545 0.0 1014857
12:00+29ю58355 0.0 10131772
15:00+30ююз58225 0.0 10133465
18:00+28ю493096 0.0 10121038
21:00+21ю312495 0.0 1012307
20 мая, чт
чт2000:00+17юв211735 0.0 1013233
03:00+15юв268897 0.0 1013118
06:00+19юв37696 0.0 1012275
09:00+24юв464537 0.0 1011831
12:00+28ююв57295 0.0 10091758
15:00+29ююв57232 0.0 10082589
18:00+27юв48325 0.0 10062164
21:00+21ююз5126815 0.5 1007606